Time,TemperatureF,DewpointF,PressureIn,WindDirection,WindDirectionDegrees,WindSpeedMPH,WindSpeedGustMPH,Humidity,HourlyPrecipIn,Conditions,Clouds,dailyrainin,SoftwareType,DateUTC
2013-02-04 00:03:00,37.0,21.5,29.96,WSW,247,4.0,6.0,53,0.00,,,0.00,VWS V14.01,2013-02-04 07:03:00,
2013-02-04 00:08:00,36.0,21.8,29.96,West,270,0.0,0.0,56,0.00,,,0.00,VWS V14.01,2013-02-04 07:08:00,
2013-02-04 00:13:00,36.0,21.8,29.96,WSW,247,0.0,0.0,56,0.00,,,0.00,VWS V14.01,2013-02-04 07:13:00,
2013-02-04 00:18:00,35.0,20.9,29.96,WSW,247,0.0,4.0,56,0.00,,,0.00,VWS V14.01,2013-02-04 07:18:00,
2013-02-04 00:23:00,35.0,21.3,29.96,West,270,0.0,3.0,57,0.00,,,0.00,VWS V14.01,2013-02-04 07:23:00,
2013-02-04 00:28:00,35.0,20.9,29.96,WSW,247,0.0,3.0,56,0.00,,,0.00,VWS V14.01,2013-02-04 07:28:00,
2013-02-04 00:33:00,35.0,20.9,29.97,WSW,247,0.0,5.0,56,0.00,,,0.00,VWS V14.01,2013-02-04 07:33:00,
2013-02-04 00:38:00,35.0,20.9,29.97,WSW,247,1.0,6.0,56,0.00,,,0.00,VWS V14.01,2013-02-04 07:38:00,
2013-02-04 00:43:00,34.0,21.2,29.97,NNW,337,0.0,0.0,59,0.00,,,0.00,VWS V14.01,2013-02-04 07:43:00,
2013-02-04 00:48:00,32.0,20.5,29.97,NNW,337,0.0,0.0,62,0.00,,,0.00,VWS V14.01,2013-02-04 07:48:00,
2013-02-04 00:53:00,33.0,21.4,29.99,NNW,337,0.0,0.0,62,0.00,,,0.00,VWS V14.01,2013-02-04 07:53:00,
2013-02-04 00:58:00,33.0,20.6,29.99,NNW,337,0.0,0.0,60,0.00,,,0.00,VWS V14.01,2013-02-04 07:58:00,
2013-02-04 01:03:00,33.0,20.2,29.97,NNW,337,0.0,0.0,59,0.00,,,0.00,VWS V14.01,2013-02-04 08:03:00,
2013-02-04 01:08:00,33.0,20.6,29.97,NNE,22,0.0,0.0,60,0.00,,,0.00,VWS V14.01,2013-02-04 08:08:00,
2013-02-04 01:13:00,33.0,20.6,29.98,NNE,22,0.0,0.0,60,0.00,,,0.00,VWS V14.01,2013-02-04 08:13:00,
2013-02-04 01:18:00,33.0,21.0,29.98,NNE,22,0.0,0.0,61,0.00,,,0.00,VWS V14.01,2013-02-04 08:18:00,
2013-02-04 01:23:00,32.0,20.5,29.98,SE,135,0.0,0.0,62,0.00,,,0.00,VWS V14.01,2013-02-04 08:23:00,
2013-02-04 01:28:00,31.0,19.9,29.98,SE,135,0.0,0.0,63,0.00,,,0.00,VWS V14.01,2013-02-04 08:28:00,
2013-02-04 01:33:00,30.0,20.7,30.00,West,270,1.0,4.0,68,0.00,,,0.00,VWS V14.01,2013-02-04 08:33:00,
2013-02-04 01:38:00,30.0,20.7,30.00,West,270,0.0,1.0,68,0.00,,,0.00,VWS V14.01,2013-02-04 08:38:00,
2013-02-04 01:43:00,30.0,21.4,30.00,West,270,0.0,0.0,70,0.00,,,0.00,VWS V14.01,2013-02-04 08:43:00,
2013-02-04 01:48:00,30.0,21.1,30.00,West,270,0.0,0.0,69,0.00,,,0.00,VWS V14.01,2013-02-04 08:48:00,
2013-02-04 01:53:00,30.0,20.7,30.00,West,270,0.0,0.0,68,0.00,,,0.00,VWS V14.01,2013-02-04 08:53:00,
2013-02-04 01:58:00,29.0,20.5,30.00,West,270,0.0,0.0,70,0.00,,,0.00,VWS V14.01,2013-02-04 08:58:00,
2013-02-04 02:03:00,29.0,20.8,30.01,West,270,0.0,0.0,71,0.00,,,0.00,VWS V14.01,2013-02-04 09:03:00,
2013-02-04 02:08:00,28.0,20.5,30.01,West,270,0.0,0.0,73,0.00,,,0.00,VWS V14.01,2013-02-04 09:08:00,
2013-02-04 02:13:00,28.0,20.5,30.01,West,270,0.0,0.0,73,0.00,,,0.00,VWS V14.01,2013-02-04 09:13:00,
2013-02-04 02:18:00,28.0,20.5,30.01,West,270,0.0,0.0,73,0.00,,,0.00,VWS V14.01,2013-02-04 09:18:00,
2013-02-04 02:23:00,28.0,20.8,30.01,West,270,0.0,0.0,74,0.00,,,0.00,VWS V14.01,2013-02-04 09:23:00,
2013-02-04 02:28:00,30.0,21.8,30.01,West,270,0.0,0.0,71,0.00,,,0.00,VWS V14.01,2013-02-04 09:28:00,
2013-02-04 02:33:00,29.0,20.5,30.00,SSW,202,0.0,4.0,70,0.00,,,0.00,VWS V14.01,2013-02-04 09:33:00,
2013-02-04 02:38:00,29.0,21.1,30.00,SSW,202,0.0,5.0,72,0.00,,,0.00,VWS V14.01,2013-02-04 09:38:00,
2013-02-04 02:43:00,29.0,21.1,30.00,SSW,202,0.0,2.0,72,0.00,,,0.00,VWS V14.01,2013-02-04 09:43:00,
2013-02-04 02:48:00,29.0,21.4,30.00,SSW,202,1.0,2.0,73,0.00,,,0.00,VWS V14.01,2013-02-04 09:48:00,
2013-02-04 02:53:00,28.0,20.5,30.00,SSW,202,0.0,1.0,73,0.00,,,0.00,VWS V14.01,2013-02-04 09:53:00,
2013-02-04 02:58:00,28.0,20.5,30.00,SSW,202,0.0,0.0,73,0.00,,,0.00,VWS V14.01,2013-02-04 09:58:00,
2013-02-04 03:03:00,28.0,20.5,30.00,SSW,202,0.0,0.0,73,0.00,,,0.00,VWS V14.01,2013-02-04 10:03:00,
2013-02-04 03:08:00,27.0,19.8,30.00,SSW,202,0.0,0.0,74,0.00,,,0.00,VWS V14.01,2013-02-04 10:08:00,
2013-02-04 03:13:00,27.0,20.1,30.01,SSW,202,0.0,0.0,75,0.00,,,0.00,VWS V14.01,2013-02-04 10:13:00,
2013-02-04 03:18:00,27.0,20.1,30.01,SSW,202,0.0,0.0,75,0.00,,,0.00,VWS V14.01,2013-02-04 10:18:00,
2013-02-04 03:23:00,27.0,19.8,30.01,SSE,157,0.0,0.0,74,0.00,,,0.00,VWS V14.01,2013-02-04 10:23:00,
2013-02-04 03:28:00,27.0,20.5,30.01,SSE,157,3.0,4.0,76,0.00,,,0.00,VWS V14.01,2013-02-04 10:28:00,
2013-02-04 03:33:00,27.0,20.1,30.01,SE,135,1.0,6.0,75,0.00,,,0.00,VWS V14.01,2013-02-04 10:33:00,
2013-02-04 03:38:00,27.0,20.1,30.01,SE,135,0.0,1.0,75,0.00,,,0.00,VWS V14.01,2013-02-04 10:38:00,
2013-02-04 03:43:00,27.0,20.8,30.01,SSE,157,0.0,0.0,77,0.00,,,0.00,VWS V14.01,2013-02-04 10:43:00,
2013-02-04 03:48:00,27.0,21.1,30.01,SSW,202,6.0,7.0,78,0.00,,,0.00,VWS V14.01,2013-02-04 10:48:00,
2013-02-04 03:53:00,26.0,20.1,30.01,SSW,202,3.0,5.0,78,0.00,,,0.00,VWS V14.01,2013-02-04 10:53:00,
2013-02-04 03:58:00,25.0,20.0,30.01,SSW,202,3.0,5.0,81,0.00,,,0.00,VWS V14.01,2013-02-04 10:58:00,
2013-02-04 04:03:00,25.0,20.6,30.01,South,180,4.0,4.0,83,0.00,,,0.00,VWS V14.01,2013-02-04 11:03:00,
2013-02-04 04:08:00,25.0,20.6,30.01,SSW,202,0.0,5.0,83,0.00,,,0.00,VWS V14.01,2013-02-04 11:08:00,
2013-02-04 04:13:00,25.0,20.0,30.01,SW,225,1.0,3.0,81,0.00,,,0.00,VWS V14.01,2013-02-04 11:13:00,
2013-02-04 04:18:00,25.0,20.3,30.01,SW,225,4.0,4.0,82,0.00,,,0.00,VWS V14.01,2013-02-04 11:18:00,
2013-02-04 04:23:00,25.0,20.3,30.01,SSW,202,0.0,5.0,82,0.00,,,0.00,VWS V14.01,2013-02-04 11:23:00,
2013-02-04 04:28:00,25.0,20.3,30.01,SW,225,0.0,4.0,82,0.00,,,0.00,VWS V14.01,2013-02-04 11:28:00,
2013-02-04 04:33:00,26.0,21.3,30.00,SW,225,0.0,4.0,82,0.00,,,0.00,VWS V14.01,2013-02-04 11:33:00,
2013-02-04 04:38:00,26.0,21.6,30.00,SSW,202,1.0,6.0,83,0.00,,,0.00,VWS V14.01,2013-02-04 11:38:00,
2013-02-04 04:43:00,26.0,21.3,30.00,SSW,202,4.0,4.0,82,0.00,,,0.00,VWS V14.01,2013-02-04 11:43:00,
2013-02-04 04:48:00,27.0,21.4,30.00,SSW,202,2.0,3.0,79,0.00,,,0.00,VWS V14.01,2013-02-04 11:48:00,
2013-02-04 04:53:00,27.0,21.7,29.99,SW,225,0.0,2.0,80,0.00,,,0.00,VWS V14.01,2013-02-04 11:53:00,
2013-02-04 04:58:00,26.0,21.0,29.99,WSW,247,0.0,4.0,81,0.00,,,0.00,VWS V14.01,2013-02-04 11:58:00,
2013-02-04 05:03:00,26.0,21.6,29.99,SSW,202,2.0,2.0,83,0.00,,,0.00,VWS V14.01,2013-02-04 12:03:00,
2013-02-04 05:08:00,27.0,22.2,29.99,South,180,3.0,6.0,82,0.00,,,0.00,VWS V14.01,2013-02-04 12:08:00,
2013-02-04 05:13:00,28.0,22.6,29.98,West,270,0.0,6.0,80,0.00,,,0.00,VWS V14.01,2013-02-04 12:13:00,
2013-02-04 05:18:00,28.0,21.7,29.98,SSW,202,0.0,0.0,77,0.00,,,0.00,VWS V14.01,2013-02-04 12:18:00,
2013-02-04 05:23:00,29.0,22.4,29.96,SSE,157,1.0,6.0,76,0.00,,,0.00,VWS V14.01,2013-02-04 12:23:00,
2013-02-04 05:28:00,29.0,21.8,29.95,SW,225,0.0,2.0,74,0.00,,,0.00,VWS V14.01,2013-02-04 12:28:00,
2013-02-04 05:33:00,29.0,22.1,29.95,SSW,202,1.0,4.0,75,0.00,,,0.00,VWS V14.01,2013-02-04 12:33:00,
2013-02-04 05:38:00,30.0,22.4,29.94,SSW,202,1.0,7.0,73,0.00,,,0.00,VWS V14.01,2013-02-04 12:38:00,
2013-02-04 05:44:00,30.0,22.4,29.94,SSE,157,3.0,7.0,73,0.00,,,0.00,VWS V14.01,2013-02-04 12:44:00,
2013-02-04 05:49:00,30.0,22.4,29.94,South,180,0.0,6.0,73,0.00,,,0.00,VWS V14.01,2013-02-04 12:49:00,
2013-02-04 05:54:00,30.0,22.4,29.94,South,180,0.0,2.0,73,0.00,,,0.00,VWS V14.01,2013-02-04 12:54:00,
2013-02-04 05:59:00,30.0,22.1,29.94,SSW,202,1.0,3.0,72,0.00,,,0.00,VWS V14.01,2013-02-04 12:59:00,
2013-02-04 06:04:00,30.0,22.1,29.94,SSW,202,1.0,2.0,72,0.00,,,0.00,VWS V14.01,2013-02-04 13:04:00,
2013-02-04 06:09:00,29.0,21.4,29.95,SW,225,0.0,3.0,73,0.00,,,0.00,VWS V14.01,2013-02-04 13:09:00,
2013-02-04 06:14:00,29.0,21.4,29.95,WSW,247,1.0,4.0,73,0.00,,,0.00,VWS V14.01,2013-02-04 13:14:00,
2013-02-04 06:19:00,29.0,22.1,29.95,WSW,247,0.0,1.0,75,0.00,,,0.00,VWS V14.01,2013-02-04 13:19:00,
2013-02-04 06:24:00,28.0,21.7,29.95,WSW,247,2.0,2.0,77,0.00,,,0.00,VWS V14.01,2013-02-04 13:24:00,
2013-02-04 06:29:00,28.0,21.4,29.96,NNW,337,0.0,1.0,76,0.00,,,0.00,VWS V14.01,2013-02-04 13:29:00,
2013-02-04 06:34:00,27.0,21.4,29.96,North,360,0.0,0.0,79,0.00,,,0.00,VWS V14.01,2013-02-04 13:34:00,
2013-02-04 06:39:00,27.0,21.7,29.97,North,360,0.0,0.0,80,0.00,,,0.00,VWS V14.01,2013-02-04 13:39:00,
2013-02-04 06:44:00,27.0,21.4,29.97,North,360,0.0,0.0,79,0.00,,,0.00,VWS V14.01,2013-02-04 13:44:00,
2013-02-04 06:49:00,28.0,21.7,29.96,North,360,0.0,0.0,77,0.00,,,0.00,VWS V14.01,2013-02-04 13:49:00,
2013-02-04 06:54:00,29.0,22.4,29.96,East,90,0.0,0.0,76,0.00,,,0.00,VWS V14.01,2013-02-04 13:54:00,
2013-02-04 06:59:00,28.0,22.3,29.95,East,90,0.0,2.0,79,0.00,,,0.00,VWS V14.01,2013-02-04 13:59:00,
2013-02-04 07:04:00,27.0,22.5,29.95,WSW,247,1.0,2.0,83,0.00,,,0.00,VWS V14.01,2013-02-04 14:04:00,
2013-02-04 07:09:00,27.0,22.5,29.96,NW,315,0.0,4.0,83,0.00,,,0.00,VWS V14.01,2013-02-04 14:09:00,
2013-02-04 07:14:00,27.0,22.5,29.96,SSE,157,0.0,2.0,83,0.00,,,0.00,VWS V14.01,2013-02-04 14:14:00,
2013-02-04 07:19:00,27.0,22.5,29.96,SSE,157,0.0,0.0,83,0.00,,,0.00,VWS V14.01,2013-02-04 14:19:00,
2013-02-04 07:24:00,27.0,22.5,29.96,SE,135,1.0,1.0,83,0.00,,,0.00,VWS V14.01,2013-02-04 14:24:00,
2013-02-04 07:29:00,27.0,22.5,29.95,SSE,157,3.0,3.0,83,0.00,,,0.00,VWS V14.01,2013-02-04 14:29:00,
2013-02-04 07:34:00,27.0,23.1,29.95,SE,135,0.0,3.0,85,0.00,,,0.00,VWS V14.01,2013-02-04 14:34:00,
2013-02-04 07:39:00,27.0,23.1,29.95,SE,135,0.0,0.0,85,0.00,,,0.00,VWS V14.01,2013-02-04 14:39:00,
2013-02-04 07:44:00,27.0,23.6,29.95,East,90,0.0,0.0,87,0.00,,,0.00,VWS V14.01,2013-02-04 14:44:00,
2013-02-04 07:49:00,27.0,23.6,29.95,East,90,0.0,0.0,87,0.00,,,0.00,VWS V14.01,2013-02-04 14:49:00,
2013-02-04 07:54:00,27.0,23.6,29.95,East,90,0.0,0.0,87,0.00,,,0.00,VWS V14.01,2013-02-04 14:54:00,
2013-02-04 07:59:00,27.0,23.1,29.95,East,90,0.0,0.0,85,0.00,,,0.00,VWS V14.01,2013-02-04 14:59:00,
2013-02-04 08:04:00,27.0,23.4,29.95,SE,135,0.0,0.0,86,0.00,,,0.00,VWS V14.01,2013-02-04 15:04:00,
2013-02-04 08:09:00,27.0,23.1,29.95,SE,135,0.0,0.0,85,0.00,,,0.00,VWS V14.01,2013-02-04 15:09:00,
2013-02-04 08:14:00,28.0,24.1,29.95,SE,135,0.0,0.0,85,0.00,,,0.00,VWS V14.01,2013-02-04 15:14:00,
2013-02-04 08:19:00,28.0,23.2,29.94,South,180,0.0,0.0,82,0.00,,,0.00,VWS V14.01,2013-02-04 15:19:00,
2013-02-04 08:24:00,28.0,23.2,29.94,SSW,202,0.0,0.0,82,0.00,,,0.00,VWS V14.01,2013-02-04 15:24:00,
2013-02-04 08:29:00,29.0,23.6,29.94,SSW,202,0.0,0.0,80,0.00,,,0.00,VWS V14.01,2013-02-04 15:29:00,
2013-02-04 08:34:00,29.0,23.6,29.94,SSW,202,0.0,0.0,80,0.00,,,0.00,VWS V14.01,2013-02-04 15:34:00,
2013-02-04 08:39:00,29.0,23.6,29.93,SSW,202,0.0,0.0,80,0.00,,,0.00,VWS V14.01,2013-02-04 15:39:00,
2013-02-04 08:44:00,29.0,24.2,29.93,South,180,0.0,0.0,82,0.00,,,0.00,VWS V14.01,2013-02-04 15:44:00,
2013-02-04 08:49:00,30.0,24.9,29.92,South,180,0.0,0.0,81,0.00,,,0.00,VWS V14.01,2013-02-04 15:49:00,
2013-02-04 08:54:00,30.0,24.9,29.92,ESE,112,0.0,0.0,81,0.00,,,0.00,VWS V14.01,2013-02-04 15:54:00,
2013-02-04 08:59:00,31.0,25.0,29.91,SE,135,0.0,0.0,78,0.00,,,0.00,VWS V14.01,2013-02-04 15:59:00,
2013-02-04 09:04:00,31.0,25.0,29.91,SE,135,0.0,0.0,78,0.00,,,0.00,VWS V14.01,2013-02-04 16:04:00,
2013-02-04 09:09:00,32.0,25.9,29.90,SE,135,0.0,0.0,78,0.00,,,0.00,VWS V14.01,2013-02-04 16:09:00,
2013-02-04 09:14:00,33.0,26.0,29.90,SE,135,0.0,0.0,75,0.00,,,0.00,VWS V14.01,2013-02-04 16:14:00,
2013-02-04 09:19:00,34.0,26.3,29.88,SE,135,0.0,0.0,73,0.00,,,0.00,VWS V14.01,2013-02-04 16:19:00,
2013-02-04 09:24:00,34.0,25.9,29.88,ESE,112,0.0,0.0,72,0.00,,,0.00,VWS V14.01,2013-02-04 16:24:00,
2013-02-04 09:29:00,34.0,25.9,29.88,SE,135,0.0,0.0,72,0.00,,,0.00,VWS V14.01,2013-02-04 16:29:00,
2013-02-04 09:34:00,35.0,26.9,29.88,SE,135,5.0,6.0,72,0.00,,,0.00,VWS V14.01,2013-02-04 16:34:00,
2013-02-04 09:39:00,36.0,26.8,29.86,SSE,157,2.0,6.0,69,0.00,,,0.00,VWS V14.01,2013-02-04 16:39:00,
2013-02-04 09:44:00,38.0,27.7,29.86,South,180,0.0,4.0,66,0.00,,,0.00,VWS V14.01,2013-02-04 16:44:00,
2013-02-04 09:49:00,40.0,27.2,29.83,SSW,202,5.0,5.0,60,0.00,,,0.00,VWS V14.01,2013-02-04 16:49:00,
2013-02-04 09:54:00,42.0,27.0,29.83,SSW,202,4.0,6.0,55,0.00,,,0.00,VWS V14.01,2013-02-04 16:54:00,
2013-02-04 09:59:00,43.0,25.2,29.82,SSW,202,6.0,9.0,49,0.00,,,0.00,VWS V14.01,2013-02-04 16:59:00,
2013-02-04 10:04:00,44.0,25.6,29.82,South,180,6.0,8.0,48,0.00,,,0.00,VWS V14.01,2013-02-04 17:04:00,
2013-02-04 10:09:00,46.0,25.3,29.80,South,180,1.0,6.0,44,0.00,,,0.00,VWS V14.01,2013-02-04 17:09:00,
2013-02-04 10:14:00,43.0,28.4,29.80,NE,45,5.0,7.0,56,0.00,,,0.00,VWS V14.01,2013-02-04 17:14:00,
2013-02-04 10:19:00,43.0,24.7,29.82,ESE,112,5.0,5.0,48,0.00,,,0.00,VWS V14.01,2013-02-04 17:19:00,
2013-02-04 10:24:00,44.0,25.6,29.82,SE,135,0.0,5.0,48,0.00,,,0.00,VWS V14.01,2013-02-04 17:24:00,
2013-02-04 10:29:00,44.0,23.0,29.82,South,180,5.0,7.0,43,0.00,,,0.00,VWS V14.01,2013-02-04 17:29:00,
2013-02-04 10:34:00,44.0,24.0,29.82,South,180,0.0,8.0,45,0.00,,,0.00,VWS V14.01,2013-02-04 17:34:00,
2013-02-04 10:39:00,43.0,23.1,29.82,SSE,157,4.0,6.0,45,0.00,,,0.00,VWS V14.01,2013-02-04 17:39:00,
2013-02-04 10:44:00,43.0,22.6,29.82,South,180,2.0,6.0,44,0.00,,,0.00,VWS V14.01,2013-02-04 17:44:00,
2013-02-04 10:49:00,44.0,23.5,29.81,WSW,247,3.0,5.0,44,0.00,,,0.00,VWS V14.01,2013-02-04 17:49:00,
2013-02-04 10:54:00,45.0,23.9,29.81,South,180,9.0,9.0,43,0.00,,,0.00,VWS V14.01,2013-02-04 17:54:00,
2013-02-04 10:59:00,45.0,23.3,29.81,SSW,202,3.0,9.0,42,0.00,,,0.00,VWS V14.01,2013-02-04 17:59:00,
2013-02-04 11:04:00,46.0,23.6,29.81,SSW,202,3.0,9.0,41,0.00,,,0.00,VWS V14.01,2013-02-04 18:04:00,
2013-02-04 11:09:00,46.0,23.0,29.79,SW,225,2.0,6.0,40,0.00,,,0.00,VWS V14.01,2013-02-04 18:09:00,
2013-02-04 11:14:00,47.0,22.1,29.79,SSE,157,6.0,8.0,37,0.00,,,0.00,VWS V14.01,2013-02-04 18:14:00,
2013-02-04 11:19:00,48.0,22.3,29.77,SE,135,5.0,7.0,36,0.00,,,0.00,VWS V14.01,2013-02-04 18:19:00,
2013-02-04 11:24:00,47.0,25.1,29.77,East,90,3.0,9.0,42,0.00,,,0.00,VWS V14.01,2013-02-04 18:24:00,
2013-02-04 11:29:00,48.0,23.6,29.77,ESE,112,4.0,6.0,38,0.00,,,0.00,VWS V14.01,2013-02-04 18:29:00,
2013-02-04 11:34:00,46.0,31.6,29.77,NE,45,10.0,11.0,57,0.00,,,0.00,VWS V14.01,2013-02-04 18:34:00,
2013-02-04 11:39:00,45.0,31.1,29.79,ENE,67,8.0,10.0,58,0.00,,,0.00,VWS V14.01,2013-02-04 18:39:00,
2013-02-04 11:44:00,44.0,31.8,29.79,ENE,67,9.0,10.0,62,0.00,,,0.00,VWS V14.01,2013-02-04 18:44:00,
2013-02-04 11:49:00,45.0,30.7,29.79,NE,45,5.0,9.0,57,0.00,,,0.00,VWS V14.01,2013-02-04 18:49:00,
2013-02-04 11:54:00,45.0,31.1,29.79,NE,45,6.0,9.0,58,0.00,,,0.00,VWS V14.01,2013-02-04 18:54:00,
2013-02-04 11:59:00,46.0,30.8,29.79,NE,45,6.0,8.0,55,0.00,,,0.00,VWS V14.01,2013-02-04 18:59:00,
2013-02-04 12:04:00,46.0,29.4,29.79,NNE,22,7.0,7.0,52,0.00,,,0.00,VWS V14.01,2013-02-04 19:04:00,
2013-02-04 12:09:00,46.0,28.4,29.78,NE,45,8.0,9.0,50,0.00,,,0.00,VWS V14.01,2013-02-04 19:09:00,
2013-02-04 12:14:00,46.0,28.4,29.78,NE,45,7.0,10.0,50,0.00,,,0.00,VWS V14.01,2013-02-04 19:14:00,
2013-02-04 12:19:00,47.0,30.3,29.77,NE,45,6.0,10.0,52,0.00,,,0.00,VWS V14.01,2013-02-04 19:19:00,
2013-02-04 12:24:00,46.0,26.4,29.77,ENE,67,6.0,9.0,46,0.00,,,0.00,VWS V14.01,2013-02-04 19:24:00,
2013-02-04 12:29:00,47.0,28.9,29.77,NE,45,6.0,9.0,49,0.00,,,0.00,VWS V14.01,2013-02-04 19:29:00,
2013-02-04 12:34:00,47.0,25.1,29.77,NNE,22,6.0,6.0,42,0.00,,,0.00,VWS V14.01,2013-02-04 19:34:00,
2013-02-04 12:39:00,47.0,28.9,29.77,NE,45,8.0,9.0,49,0.00,,,0.00,VWS V14.01,2013-02-04 19:39:00,
2013-02-04 12:44:00,47.0,29.3,29.77,NE,45,7.0,8.0,50,0.00,,,0.00,VWS V14.01,2013-02-04 19:44:00,
2013-02-04 12:49:00,48.0,26.6,29.76,NW,315,7.0,10.0,43,0.00,,,0.00,VWS V14.01,2013-02-04 19:49:00,
2013-02-04 12:54:00,49.0,26.9,29.76,NE,45,8.0,8.0,42,0.00,,,0.00,VWS V14.01,2013-02-04 19:54:00,
2013-02-04 12:59:00,48.0,26.6,29.76,NNE,22,7.0,8.0,43,0.00,,,0.00,VWS V14.01,2013-02-04 19:59:00,
2013-02-04 13:04:00,48.0,27.7,29.76,North,360,6.0,6.0,45,0.00,,,0.00,VWS V14.01,2013-02-04 20:04:00,
2013-02-04 13:09:00,49.0,27.5,29.75,NNE,22,5.0,6.0,43,0.00,,,0.00,VWS V14.01,2013-02-04 20:09:00,
2013-02-04 13:14:00,49.0,25.1,29.75,North,360,7.0,8.0,39,0.00,,,0.00,VWS V14.01,2013-02-04 20:14:00,
2013-02-04 13:19:00,49.0,26.9,29.75,NE,45,7.0,7.0,42,0.00,,,0.00,VWS V14.01,2013-02-04 20:19:00,
2013-02-04 13:24:00,47.0,26.2,29.75,NE,45,10.0,10.0,44,0.00,,,0.00,VWS V14.01,2013-02-04 20:24:00,
2013-02-04 13:29:00,47.0,25.7,29.76,NE,45,5.0,7.0,43,0.00,,,0.00,VWS V14.01,2013-02-04 20:29:00,
2013-02-04 13:34:00,48.0,26.0,29.76,NE,45,9.0,11.0,42,0.00,,,0.00,VWS V14.01,2013-02-04 20:34:00,
2013-02-04 13:39:00,49.0,22.6,29.75,NE,45,6.0,7.0,35,0.00,,,0.00,VWS V14.01,2013-02-04 20:39:00,
2013-02-04 13:44:00,49.0,25.8,29.75,NE,45,8.0,9.0,40,0.00,,,0.00,VWS V14.01,2013-02-04 20:44:00,
2013-02-04 13:49:00,51.0,24.3,29.73,North,360,16.0,16.0,35,0.00,,,0.00,VWS V14.01,2013-02-04 20:49:00,
2013-02-04 13:54:00,50.0,23.4,29.73,North,360,3.0,6.0,35,0.00,,,0.00,VWS V14.01,2013-02-04 20:54:00,
2013-02-04 13:59:00,50.0,24.8,29.74,North,360,9.0,10.0,37,0.00,,,0.00,VWS V14.01,2013-02-04 20:59:00,
2013-02-04 14:04:00,49.0,25.8,29.74,North,360,10.0,12.0,40,0.00,,,0.00,VWS V14.01,2013-02-04 21:04:00,
2013-02-04 14:09:00,48.0,24.9,29.75,NNW,337,9.0,10.0,40,0.00,,,0.00,VWS V14.01,2013-02-04 21:09:00,
2013-02-04 14:14:00,48.0,25.4,29.75,North,360,7.0,7.0,41,0.00,,,0.00,VWS V14.01,2013-02-04 21:14:00,
2013-02-04 14:19:00,48.0,24.9,29.76,North,360,6.0,6.0,40,0.00,,,0.00,VWS V14.01,2013-02-04 21:19:00,
2013-02-04 14:24:00,48.0,24.2,29.76,North,360,2.0,3.0,39,0.00,,,0.00,VWS V14.01,2013-02-04 21:24:00,
2013-02-04 14:29:00,48.0,24.2,29.76,NNW,337,1.0,5.0,39,0.00,,,0.00,VWS V14.01,2013-02-04 21:29:00,
2013-02-04 14:34:00,48.0,24.2,29.76,NNW,337,9.0,13.0,39,0.00,,,0.00,VWS V14.01,2013-02-04 21:34:00,
2013-02-04 14:39:00,48.0,23.6,29.77,West,270,7.0,7.0,38,0.00,,,0.00,VWS V14.01,2013-02-04 21:39:00,
2013-02-04 14:44:00,48.0,24.9,29.77,West,270,4.0,5.0,40,0.00,,,0.00,VWS V14.01,2013-02-04 21:44:00,
2013-02-04 14:49:00,48.0,24.2,29.76,WNW,292,4.0,9.0,39,0.00,,,0.00,VWS V14.01,2013-02-04 21:49:00,
2013-02-04 14:54:00,48.0,21.7,29.76,WNW,292,20.0,25.0,35,0.00,,,0.00,VWS V14.01,2013-02-04 21:54:00,
2013-02-04 14:59:00,48.0,23.0,29.75,West,270,18.0,23.0,37,0.00,,,0.00,VWS V14.01,2013-02-04 21:59:00,
2013-02-04 15:04:00,49.0,23.9,29.75,WNW,292,11.0,17.0,37,0.00,,,0.00,VWS V14.01,2013-02-04 22:04:00,
2013-02-04 15:09:00,49.0,23.9,29.76,West,270,22.0,23.0,37,0.00,,,0.00,VWS V14.01,2013-02-04 22:09:00,
2013-02-04 15:14:00,49.0,22.6,29.76,West,270,16.0,19.0,35,0.00,,,0.00,VWS V14.01,2013-02-04 22:14:00,
2013-02-04 15:19:00,49.0,22.6,29.75,WNW,292,17.0,22.0,35,0.00,,,0.00,VWS V14.01,2013-02-04 22:19:00,
2013-02-04 15:25:00,49.0,23.2,29.75,West,270,17.0,23.0,36,0.00,,,0.00,VWS V14.01,2013-02-04 22:25:00,
2013-02-04 15:30:00,48.0,23.0,29.75,West,270,22.0,27.0,37,0.00,,,0.00,VWS V14.01,2013-02-04 22:30:00,
2013-02-04 15:35:00,48.0,23.0,29.75,WNW,292,24.0,25.0,37,0.00,,,0.00,VWS V14.01,2013-02-04 22:35:00,
2013-02-04 15:45:00,48.0,23.6,29.76,WNW,292,19.0,20.0,38,0.00,,,0.00,VWS V14.01,2013-02-04 22:45:00,
2013-02-04 16:08:00,47.0,24.0,29.77,NW,315,13.0,19.0,40,0.00,,,0.00,VWS V14.01,2013-02-04 23:08:00,
2013-02-04 16:13:00,46.0,24.2,29.77,NW,315,19.0,23.0,42,0.00,,,0.00,VWS V14.01,2013-02-04 23:13:00,
2013-02-04 16:18:00,46.0,24.2,29.78,NW,315,12.0,22.0,42,0.00,,,0.00,VWS V14.01,2013-02-04 23:18:00,
2013-02-04 16:24:00,46.0,24.2,29.78,NW,315,12.0,20.0,42,0.00,,,0.00,VWS V14.01,2013-02-04 23:24:00,
2013-02-04 16:29:00,46.0,24.2,29.78,NW,315,15.0,19.0,42,0.00,,,0.00,VWS V14.01,2013-02-04 23:29:00,
2013-02-04 16:34:00,46.0,24.2,29.78,NNW,337,12.0,17.0,42,0.00,,,0.00,VWS V14.01,2013-02-04 23:34:00,
2013-02-04 16:39:00,46.0,24.2,29.78,NW,315,10.0,15.0,42,0.00,,,0.00,VWS V14.01,2013-02-04 23:39:00,
2013-02-04 16:44:00,45.0,24.4,29.78,NW,315,9.0,12.0,44,0.00,,,0.00,VWS V14.01,2013-02-04 23:44:00,
2013-02-04 16:49:00,45.0,25.0,29.79,WNW,292,3.0,10.0,45,0.00,,,0.00,VWS V14.01,2013-02-04 23:49:00,
2013-02-04 16:54:00,45.0,25.0,29.79,WNW,292,2.0,9.0,45,0.00,,,0.00,VWS V14.01,2013-02-04 23:54:00,
2013-02-04 16:59:00,45.0,24.4,29.79,WNW,292,5.0,7.0,44,0.00,,,0.00,VWS V14.01,2013-02-04 23:59:00,
2013-02-04 17:04:00,44.0,24.0,29.79,WNW,292,2.0,6.0,45,0.00,,,0.00,VWS V14.01,2013-02-05 00:04:00,
2013-02-04 17:09:00,44.0,24.6,29.81,West,270,0.0,5.0,46,0.00,,,0.00,VWS V14.01,2013-02-05 00:09:00,
2013-02-04 17:14:00,45.0,25.0,29.81,WNW,292,0.0,11.0,45,0.00,,,0.00,VWS V14.01,2013-02-05 00:14:00,
2013-02-04 17:19:00,44.0,24.0,29.81,WNW,292,2.0,4.0,45,0.00,,,0.00,VWS V14.01,2013-02-05 00:19:00,
2013-02-04 17:24:00,43.0,23.6,29.81,NW,315,0.0,2.0,46,0.00,,,0.00,VWS V14.01,2013-02-05 00:24:00,
2013-02-04 17:29:00,43.0,23.6,29.81,WNW,292,0.0,3.0,46,0.00,,,0.00,VWS V14.01,2013-02-05 00:29:00,
2013-02-04 17:34:00,42.0,23.8,29.81,NW,315,0.0,1.0,48,0.00,,,0.00,VWS V14.01,2013-02-05 00:34:00,
2013-02-04 17:39:00,42.0,23.2,29.82,NW,315,0.0,0.0,47,0.00,,,0.00,VWS V14.01,2013-02-05 00:39:00,
2013-02-04 17:44:00,41.0,22.8,29.82,NW,315,0.0,0.0,48,0.00,,,0.00,VWS V14.01,2013-02-05 00:44:00,
2013-02-04 17:49:00,41.0,22.3,29.83,NW,315,0.0,0.0,47,0.00,,,0.00,VWS V14.01,2013-02-05 00:49:00,
2013-02-04 17:54:00,41.0,23.3,29.83,NW,315,0.0,0.0,49,0.00,,,0.00,VWS V14.01,2013-02-05 00:54:00,
2013-02-04 17:59:00,41.0,23.8,29.83,NW,315,0.0,0.0,50,0.00,,,0.00,VWS V14.01,2013-02-05 00:59:00,
2013-02-04 18:04:00,41.0,23.3,29.83,NW,315,0.0,0.0,49,0.00,,,0.00,VWS V14.01,2013-02-05 01:04:00,
2013-02-04 18:09:00,42.0,24.2,29.82,East,90,1.0,2.0,49,0.00,,,0.00,VWS V14.01,2013-02-05 01:09:00,
2013-02-04 18:14:00,42.0,24.2,29.82,South,180,0.0,3.0,49,0.00,,,0.00,VWS V14.01,2013-02-05 01:14:00,
2013-02-04 18:19:00,42.0,24.7,29.82,East,90,0.0,0.0,50,0.00,,,0.00,VWS V14.01,2013-02-05 01:19:00,
2013-02-04 18:24:00,41.0,23.8,29.82,ESE,112,0.0,0.0,50,0.00,,,0.00,VWS V14.01,2013-02-05 01:24:00,
2013-02-04 18:29:00,40.0,23.4,29.83,ESE,112,0.0,0.0,51,0.00,,,0.00,VWS V14.01,2013-02-05 01:29:00,
2013-02-04 18:34:00,39.0,23.3,29.83,SE,135,0.0,0.0,53,0.00,,,0.00,VWS V14.01,2013-02-05 01:34:00,
2013-02-04 18:39:00,40.0,24.7,29.83,SE,135,0.0,0.0,54,0.00,,,0.00,VWS V14.01,2013-02-05 01:39:00,
2013-02-04 18:44:00,39.0,23.8,29.83,SE,135,0.0,0.0,54,0.00,,,0.00,VWS V14.01,2013-02-05 01:44:00,
2013-02-04 19:00:00,38.0,23.7,29.85,SSE,157,0.0,15.0,56,0.00,,,0.00,VWS V14.01,2013-02-05 02:00:00,
2013-02-04 19:15:00,36.0,24.3,29.86,SW,225,0.0,0.0,62,0.00,,,0.00,VWS V14.01,2013-02-05 02:15:00,
2013-02-04 19:30:00,33.0,22.9,29.88,NW,315,0.0,0.0,66,0.00,,,0.00,VWS V14.01,2013-02-05 02:30:00,
2013-02-04 19:45:00,33.0,22.9,29.88,WSW,247,0.0,0.0,66,0.00,,,0.00,VWS V14.01,2013-02-05 02:45:00,
2013-02-04 20:00:00,32.0,23.0,29.89,WSW,247,3.0,3.0,69,0.00,,,0.00,VWS V14.01,2013-02-05 03:00:00,
2013-02-04 20:15:00,31.0,22.4,29.90,WSW,247,1.0,3.0,70,0.00,,,0.00,VWS V14.01,2013-02-05 03:15:00,
2013-02-04 20:30:00,32.0,23.3,29.90,NW,315,1.0,1.0,70,0.00,,,0.00,VWS V14.01,2013-02-05 03:30:00,
2013-02-04 20:45:00,33.0,22.9,29.89,WSW,247,1.0,1.0,66,0.00,,,0.00,VWS V14.01,2013-02-05 03:45:00,
2013-02-04 21:00:00,32.0,23.3,29.89,SW,225,1.0,1.0,70,0.00,,,0.00,VWS V14.01,2013-02-05 04:00:00,
2013-02-04 21:10:00,32.0,25.0,29.90,SW,225,1.0,1.0,75,0.00,,,0.00,VWS V14.01,2013-02-05 04:10:00,
2013-02-04 21:15:00,32.0,25.0,29.90,SW,225,4.0,6.0,75,0.00,,,0.00,VWS V14.01,2013-02-05 04:15:00,
2013-02-04 21:20:00,33.0,24.6,29.89,SW,225,2.0,5.0,71,0.00,,,0.00,VWS V14.01,2013-02-05 04:20:00,
2013-02-04 21:25:00,33.0,24.3,29.89,SW,225,4.0,6.0,70,0.00,,,0.00,VWS V14.01,2013-02-05 04:25:00,
2013-02-04 21:30:00,34.0,23.9,29.88,SSW,202,6.0,8.0,66,0.00,,,0.00,VWS V14.01,2013-02-05 04:30:00,
2013-02-04 21:35:00,35.0,24.4,29.88,SSW,202,6.0,6.0,65,0.00,,,0.00,VWS V14.01,2013-02-05 04:35:00,
2013-02-04 21:41:00,34.0,23.9,29.87,SSW,202,7.0,8.0,66,0.00,,,0.00,VWS V14.01,2013-02-05 04:41:00,
2013-02-04 21:46:00,35.0,24.4,29.87,SSW,202,7.0,9.0,65,0.00,,,0.00,VWS V14.01,2013-02-05 04:46:00,
2013-02-04 21:51:00,35.0,24.4,29.87,SSW,202,7.0,9.0,65,0.00,,,0.00,VWS V14.01,2013-02-05 04:51:00,
2013-02-04 21:56:00,35.0,24.4,29.87,SW,225,8.0,9.0,65,0.00,,,0.00,VWS V14.01,2013-02-05 04:56:00,
2013-02-04 22:00:00,36.0,25.0,29.86,SW,225,9.0,11.0,64,0.00,,,0.00,VWS V14.01,2013-02-05 05:00:00,
2013-02-04 22:05:00,36.0,25.0,29.86,SW,225,10.0,12.0,64,0.00,,,0.00,VWS V14.01,2013-02-05 05:05:00,
2013-02-04 22:10:00,36.0,25.0,29.85,SSW,202,10.0,11.0,64,0.00,,,0.00,VWS V14.01,2013-02-05 05:10:00,
2013-02-04 22:15:00,36.0,25.0,29.85,SW,225,10.0,12.0,64,0.00,,,0.00,VWS V14.01,2013-02-05 05:15:00,
2013-02-04 22:20:00,36.0,25.0,29.85,SW,225,12.0,12.0,64,0.00,,,0.00,VWS V14.01,2013-02-05 05:20:00,
2013-02-04 22:25:00,36.0,24.6,29.85,SW,225,11.0,12.0,63,0.00,,,0.00,VWS V14.01,2013-02-05 05:25:00,
2013-02-04 22:30:00,36.0,25.0,29.86,SW,225,9.0,10.0,64,0.00,,,0.00,VWS V14.01,2013-02-05 05:30:00,
2013-02-04 22:35:00,36.0,25.0,29.86,SW,225,9.0,10.0,64,0.00,,,0.00,VWS V14.01,2013-02-05 05:35:00,
2013-02-04 22:41:00,36.0,24.6,29.85,SW,225,9.0,10.0,63,0.00,,,0.00,VWS V14.01,2013-02-05 05:41:00,
2013-02-04 22:46:00,37.0,24.8,29.85,SW,225,9.0,10.0,61,0.00,,,0.00,VWS V14.01,2013-02-05 05:46:00,
2013-02-04 22:51:00,36.0,25.0,29.86,SW,225,7.0,8.0,64,0.00,,,0.00,VWS V14.01,2013-02-05 05:51:00,
2013-02-04 22:56:00,37.0,25.2,29.86,SW,225,9.0,10.0,62,0.00,,,0.00,VWS V14.01,2013-02-05 05:56:00,
2013-02-04 23:01:00,37.0,25.2,29.85,WSW,247,9.0,11.0,62,0.00,,,0.00,VWS V14.01,2013-02-05 06:01:00,
2013-02-04 23:06:00,37.0,25.2,29.85,SW,225,9.0,10.0,62,0.00,,,0.00,VWS V14.01,2013-02-05 06:06:00,
2013-02-04 23:11:00,39.0,25.1,29.85,SW,225,8.0,10.0,57,0.00,,,0.00,VWS V14.01,2013-02-05 06:11:00,
2013-02-04 23:16:00,39.0,24.6,29.85,SW,225,7.0,10.0,56,0.00,,,0.00,VWS V14.01,2013-02-05 06:16:00,
2013-02-04 23:21:00,40.0,24.7,29.84,SW,225,9.0,10.0,54,0.00,,,0.00,VWS V14.01,2013-02-05 06:21:00,
2013-02-04 23:26:00,40.0,24.7,29.84,SW,225,7.0,12.0,54,0.00,,,0.00,VWS V14.01,2013-02-05 06:26:00,
2013-02-04 23:31:00,39.0,24.6,29.85,SW,225,6.0,8.0,56,0.00,,,0.00,VWS V14.01,2013-02-05 06:31:00,
2013-02-04 23:36:00,39.0,23.8,29.85,SW,225,9.0,9.0,54,0.00,,,0.00,VWS V14.01,2013-02-05 06:36:00,
2013-02-04 23:41:00,39.0,25.1,29.86,SW,225,6.0,7.0,57,0.00,,,0.00,VWS V14.01,2013-02-05 06:41:00,
2013-02-04 23:46:00,39.0,24.6,29.86,WSW,247,7.0,8.0,56,0.00,,,0.00,VWS V14.01,2013-02-05 06:46:00,
2013-02-04 23:51:00,40.0,24.3,29.86,WSW,247,7.0,9.0,53,0.00,,,0.00,VWS V14.01,2013-02-05 06:51:00,
2013-02-04 23:56:00,40.0,25.1,29.86,WSW,247,7.0,9.0,55,0.00,,,0.00,VWS V14.01,2013-02-05 06:56:00,